| time (UTC) | temp C | wind direction | speed KPH | gust KPH | rain 1hr cm | rain 24hr cm | rain mn cm | humidity % | barometer mb |
| 20260504190600 | 25 | 230 | 4.8 | 6.4 | 0.00 | 0.00 | 0.00 | 41 | 1017.1 |
| 20260504190056 | 25 | 237 | 3.2 | 11.3 | 0.00 | 0.00 | 0.00 | 41 | 1017.2 |
| 20260504185553 | 25 | 238 | 3.2 | 4.8 | 0.00 | 0.00 | 0.00 | 39 | 1017.4 |
| 20260504185050 | 25 | 235 | 3.2 | 4.8 | 0.00 | 0.00 | 0.00 | 41 | 1017.5 |
| 20260504184545 | 25 | 195 | 3.2 | 3.2 | 0.00 | 0.00 | 0.00 | 43 | 1017.5 |
| 20260504184040 | 25 | 196 | 1.6 | 3.2 | 0.00 | 0.00 | 0.00 | 45 | 1017.7 |
| 20260504183538 | 25 | 236 | 1.6 | 6.4 | 0.00 | 0.00 | 0.00 | 40 | 1017.6 |
| 20260504183036 | 25 | 239 | 4.8 | 4.8 | 0.00 | 0.00 | 0.00 | 41 | 1017.6 |
| 20260504182532 | 25 | 222 | 1.6 | 4.8 | 0.00 | 0.00 | 0.00 | 40 | 1017.7 |
| 20260504182030 | 25 | 239 | 4.8 | 4.8 | 0.00 | 0.00 | 0.00 | 39 | 1017.6 |
| 20260504181527 | 25 | 191 | 1.6 | 3.2 | 0.00 | 0.00 | 0.00 | 45 | 1017.5 |
| 20260504181025 | 25 | 233 | 3.2 | 4.8 | 0.00 | 0.00 | 0.00 | 42 | 1017.6 |
| 20260504180524 | 25 | 273 | 3.2 | 6.4 | 0.00 | 0.00 | 0.00 | 41 | 1017.6 |
| 20260504180022 | 24 | 221 | 3.2 | 4.8 | 0.00 | 0.00 | 0.00 | 43 | 1017.6 |
| 20260504175519 | 25 | 242 | 3.2 | 4.8 | 0.00 | 0.00 | 0.00 | 41 | 1017.9 |
| 20260504175016 | 24 | 172 | 4.8 | 9.7 | 0.00 | 0.00 | 0.00 | 41 | 1017.8 |
| 20260504174514 | 25 | 243 | 3.2 | 6.4 | 0.00 | 0.00 | 0.00 | 43 | 1018.0 |
| 20260504174011 | 25 | 128 | 1.6 | 3.2 | 0.00 | 0.00 | 0.00 | 39 | 1018.1 |
| 20260504173507 | 25 | 179 | 3.2 | 4.8 | 0.00 | 0.00 | 0.00 | 39 | 1018.3 |
| 20260504173005 | 25 | 154 | 0.0 | 9.7 | 0.00 | 0.00 | 0.00 | 38 | 1018.3 |
| 20260504172501 | 25 | 221 | 3.2 | 4.8 | 0.00 | 0.00 | 0.00 | 38 | 1018.3 |
| 20260504171957 | 25 | 247 | 3.2 | 6.4 | 0.00 | 0.00 | 0.00 | 37 | 1018.3 |
| 20260504171454 | 25 | 162 | 0.0 | 3.2 | 0.00 | 0.00 | 0.00 | 38 | 1018.2 |
| 20260504170951 | 25 | 236 | 1.6 | 4.8 | 0.00 | 0.00 | 0.00 | 35 | 1018.2 |
| 20260504170447 | 25 | 233 | 1.6 | 4.8 | 0.00 | 0.00 | 0.00 | 40 | 1018.3 |
| 20260504160407 | 23 | 216 | 1.6 | 3.2 | 0.00 | 0.00 | 0.00 | 40 | 1019.3 |
| 20260504150831 | 24 | 245 | 1.6 | 3.2 | 0.00 | 0.00 | 0.00 | 42 | 1019.0 |
| 20260504150328 | 23 | 110 | 1.6 | 3.2 | 0.00 | 0.00 | 0.00 | 42 | 1019.2 |
| 20260504141258 | 22 | 3 | 1.6 | 1.6 | 0.00 | 0.00 | 0.00 | 42 | 1019.3 |
| 20260504140754 | 22 | 152 | 1.6 | 1.6 | 0.00 | 0.00 | 0.00 | 41 | 1019.3 |
| 20260504140250 | 22 | 80 | 0.0 | 0.0 | 0.00 | 0.00 | 0.00 | 42 | 1019.3 |
| 20260504130719 | 17 | 33 | 0.0 | 0.0 | 0.00 | 0.00 | 0.00 | 61 | 1019.3 |
| 20260504130214 | 16 | 17 | 0.0 | 0.0 | 0.00 | 0.00 | 0.00 | 62 | 1019.4 |
| 20260504120139 | 11 | 30 | 0.0 | 0.0 | 0.00 | 0.00 | 0.00 | 82 | 1018.6 |
| 20260504110606 | 10 | 38 | 0.0 | 0.0 | 0.00 | 0.00 | 0.00 | 83 | 1018.6 |
| 20260504100523 | 11 | 44 | 0.0 | 0.0 | 0.00 | 0.00 | 0.00 | 80 | 1018.5 |
| 20260504081910 | 12 | 32 | 0.0 | 0.0 | 0.00 | 0.00 | 0.00 | 80 | 1018.6 |
| 20260504081406 | 12 | 40 | 0.0 | 0.0 | 0.00 | 0.00 | 0.00 | 79 | 1018.7 |
| 20260504080902 | 12 | 43 | 0.0 | 0.0 | 0.00 | 0.00 | 0.00 | 77 | 1018.6 |
| 20260504080359 | 12 | 46 | 0.0 | 0.0 | 0.00 | 0.00 | 0.00 | 77 | 1018.7 |
| 20260504070327 | 13 | 30 | 0.0 | 0.0 | 0.00 | 0.00 | 0.00 | 76 | 1018.8 |
| 20260504060247 | 13 | 46 | 0.0 | 0.0 | 0.00 | 0.00 | 0.00 | 80 | 1019.2 |
| 20260504050715 | 14 | 41 | 0.0 | 0.0 | 0.00 | 0.00 | 0.00 | 81 | 1019.5 |
| 20260504050206 | 13 | 40 | 0.0 | 0.0 | 0.00 | 0.00 | 0.00 | 82 | 1019.6 |
| 20260504045703 | 13 | 37 | 0.0 | 0.0 | 0.00 | 0.00 | 0.00 | 83 | 1019.5 |
| 20260504045203 | 13 | 37 | 0.0 | 0.0 | 0.00 | 0.00 | 0.00 | 83 | 1019.6 |
| 20260504044701 | 13 | 37 | 0.0 | 0.0 | 0.00 | 0.00 | 0.00 | 84 | 1019.8 |
| 20260504044158 | 14 | 38 | 0.0 | 0.0 | 0.00 | 0.00 | 0.00 | 85 | 1019.5 |
| 20260504043655 | 14 | 39 | 0.0 | 0.0 | 0.00 | 0.00 | 0.00 | 85 | 1019.6 |
| 20260504043152 | 14 | 39 | 0.0 | 0.0 | 0.00 | 0.00 | 0.00 | 85 | 1019.5 |
| 20260504042649 | 14 | 39 | 0.0 | 0.0 | 0.00 | 0.00 | 0.00 | 85 | 1019.4 |
| 20260504042146 | 14 | 44 | 0.0 | 0.0 | 0.00 | 0.00 | 0.00 | 84 | 1019.5 |
| 20260504041642 | 15 | 44 | 0.0 | 0.0 | 0.00 | 0.00 | 0.00 | 84 | 1019.3 |
| 20260504041138 | 15 | 43 | 0.0 | 0.0 | 0.00 | 0.00 | 0.00 | 84 | 1019.3 |
| 20260504040635 | 15 | 43 | 0.0 | 0.0 | 0.00 | 0.00 | 0.00 | 83 | 1019.2 |
| 20260504040132 | 15 | 38 | 0.0 | 0.0 | 0.00 | 0.00 | 0.00 | 83 | 1019.4 |
| 20260504035629 | 15 | 37 | 0.0 | 0.0 | 0.00 | 0.00 | 0.00 | 83 | 1019.3 |
| 20260504035125 | 15 | 37 | 0.0 | 0.0 | 0.00 | 0.00 | 0.00 | 82 | 1019.4 |
| 20260504034623 | 15 | 31 | 0.0 | 0.0 | 0.00 | 0.00 | 0.00 | 82 | 1019.5 |
| 20260504034120 | 15 | 31 | 0.0 | 0.0 | 0.00 | 0.00 | 0.00 | 81 | 1019.4 |
| 20260504033618 | 16 | 31 | 0.0 | 0.0 | 0.00 | 0.00 | 0.00 | 80 | 1019.5 |
| 20260504033115 | 16 | 38 | 0.0 | 0.0 | 0.00 | 0.00 | 0.00 | 79 | 1019.6 |
| 20260504032612 | 16 | 38 | 0.0 | 0.0 | 0.00 | 0.00 | 0.00 | 77 | 1019.5 |
| 20260504032109 | 16 | 37 | 0.0 | 0.0 | 0.00 | 0.00 | 0.00 | 76 | 1019.6 |
| 20260504031606 | 17 | 39 | 0.0 | 0.0 | 0.00 | 0.00 | 0.00 | 76 | 1019.5 |
| 20260504031102 | 17 | 38 | 0.0 | 0.0 | 0.00 | 0.00 | 0.00 | 76 | 1019.5 |
| 20260504030559 | 17 | 38 | 0.0 | 0.0 | 0.00 | 0.00 | 0.00 | 76 | 1019.5 |
| 20260504030055 | 17 | 31 | 0.0 | 0.0 | 0.00 | 0.00 | 0.00 | 76 | 1019.6 |
| 20260504025553 | 17 | 70 | 0.0 | 0.0 | 0.00 | 0.00 | 0.00 | 76 | 1019.4 |
| 20260504025049 | 17 | 135 | 0.0 | 0.0 | 0.00 | 0.00 | 0.00 | 75 | 1019.4 |
| 20260504024546 | 17 | 57 | 0.0 | 1.6 | 0.00 | 0.00 | 0.00 | 75 | 1019.3 |
| 20260504024043 | 17 | 33 | 0.0 | 0.0 | 0.00 | 0.00 | 0.00 | 75 | 1019.2 |
| 20260504023540 | 17 | 53 | 0.0 | 0.0 | 0.00 | 0.00 | 0.00 | 75 | 1019.2 |
| 20260504023036 | 17 | 53 | 0.0 | 0.0 | 0.00 | 0.00 | 0.00 | 74 | 1019.2 |
| 20260504022532 | 18 | 53 | 0.0 | 0.0 | 0.00 | 0.00 | 0.00 | 73 | 1019.2 |
| 20260504022028 | 18 | 53 | 0.0 | 0.0 | 0.00 | 0.00 | 0.00 | 73 | 1019.3 |
| 20260504021526 | 18 | 46 | 0.0 | 1.6 | 0.00 | 0.00 | 0.00 | 71 | 1019.2 |
| 20260504021023 | 18 | 39 | 0.0 | 1.6 | 0.00 | 0.00 | 0.00 | 70 | 1019.2 |
| 20260504020519 | 19 | 49 | 0.0 | 0.0 | 0.00 | 0.00 | 0.00 | 68 | 1019.1 |
| 20260504020016 | 20 | 23 | 0.0 | 1.6 | 0.00 | 0.00 | 0.00 | 67 | 1019.0 |
| 20260504015512 | 20 | 46 | 0.0 | 0.0 | 0.00 | 0.00 | 0.00 | 65 | 1019.1 |
| 20260504015008 | 20 | 218 | 0.0 | 0.0 | 0.00 | 0.00 | 0.00 | 64 | 1019.0 |
| 20260504014504 | 20 | 71 | 0.0 | 1.6 | 0.00 | 0.00 | 0.00 | 62 | 1018.7 |
| 20260504014002 | 20 | 149 | 0.0 | 4.8 | 0.00 | 0.00 | 0.00 | 63 | 1018.8 |
| 20260504013500 | 20 | 76 | 0.0 | 0.0 | 0.00 | 0.00 | 0.00 | 64 | 1018.7 |
| 20260504012955 | 20 | 202 | 0.0 | 1.6 | 0.00 | 0.00 | 0.00 | 62 | 1018.9 |
| 20260504012454 | 20 | 66 | 0.0 | 3.2 | 0.00 | 0.00 | 0.00 | 62 | 1018.5 |
| 20260504011951 | 20 | 158 | 0.0 | 1.6 | 0.00 | 0.00 | 0.00 | 64 | 1018.5 |
| 20260504011447 | 20 | 256 | 1.6 | 3.2 | 0.00 | 0.00 | 0.00 | 63 | 1018.3 |
| 20260504010944 | 20 | 352 | 1.6 | 3.2 | 0.00 | 0.00 | 0.00 | 63 | 1018.4 |
| 20260504010439 | 20 | 176 | 0.0 | 1.6 | 0.00 | 0.00 | 0.00 | 63 | 1018.5 |
| 20260504005936 | 20 | 228 | 0.0 | 6.4 | 0.00 | 0.00 | 0.00 | 61 | 1018.3 |
| 20260504005433 | 20 | 137 | 0.0 | 1.6 | 0.00 | 0.00 | 0.00 | 62 | 1018.3 |
| 20260504004930 | 20 | 151 | 0.0 | 1.6 | 0.00 | 0.00 | 0.00 | 62 | 1018.4 |
| 20260504004428 | 20 | 230 | 1.6 | 3.2 | 0.00 | 0.00 | 0.00 | 60 | 1018.5 |
| 20260504003925 | 20 | 259 | 1.6 | 1.6 | 0.00 | 0.00 | 0.00 | 58 | 1018.4 |
| 20260504003421 | 20 | 183 | 1.6 | 3.2 | 0.00 | 0.00 | 0.00 | 57 | 1018.2 |
| 20260504002918 | 20 | 229 | 0.0 | 3.2 | 0.00 | 0.00 | 0.00 | 58 | 1018.3 |
| 20260504002415 | 20 | 116 | 0.0 | 1.6 | 0.00 | 0.00 | 0.00 | 57 | 1018.3 |
| 20260504001912 | 21 | 191 | 0.0 | 1.6 | 0.00 | 0.00 | 0.00 | 57 | 1018.1 |
| 20260504001410 | 20 | 159 | 0.0 | 0.0 | 0.00 | 0.00 | 0.00 | 54 | 1018.1 |
| 20260504000906 | 21 | 116 | 0.0 | 0.0 | 0.00 | 0.00 | 0.00 | 53 | 1018.0 |
| 20260504000403 | 21 | 231 | 0.0 | 0.0 | 0.00 | 0.00 | 0.00 | 49 | 1018.0 |
| 20260503235901 | 21 | 237 | 0.0 | 1.6 | 0.00 | 0.00 | 0.00 | 49 | 1017.9 |
| 20260503235358 | 21 | 235 | 0.0 | 1.6 | 0.00 | 0.00 | 0.00 | 50 | 1018.1 |
| 20260503234855 | 21 | 250 | 0.0 | 3.2 | 0.00 | 0.00 | 0.00 | 53 | 1017.9 |
| 20260503234353 | 21 | 220 | 0.0 | 1.6 | 0.00 | 0.00 | 0.00 | 53 | 1018.0 |
| 20260503233850 | 21 | 212 | 3.2 | 3.2 | 0.00 | 0.00 | 0.00 | 50 | 1017.9 |
| 20260503233347 | 21 | 223 | 0.0 | 3.2 | 0.00 | 0.00 | 0.00 | 51 | 1017.9 |
| 20260503232843 | 21 | 103 | 0.0 | 3.2 | 0.00 | 0.00 | 0.00 | 50 | 1017.8 |
| 20260503232340 | 22 | 235 | 1.6 | 1.6 | 0.00 | 0.00 | 0.00 | 50 | 1018.0 |
| 20260503231839 | 22 | 237 | 1.6 | 4.8 | 0.00 | 0.00 | 0.00 | 48 | 1018.0 |
| 20260503231335 | 22 | 297 | 1.6 | 3.2 | 0.00 | 0.00 | 0.00 | 48 | 1017.9 |
| 20260503230831 | 22 | 121 | 1.6 | 3.2 | 0.00 | 0.00 | 0.00 | 48 | 1018.0 |
| 20260503230328 | 22 | 39 | 0.0 | 0.0 | 0.00 | 0.00 | 0.00 | 49 | 1017.8 |
| 20260503225826 | 22 | 207 | 0.0 | 4.8 | 0.00 | 0.00 | 0.00 | 47 | 1017.9 |
| 20260503225322 | 22 | 250 | 1.6 | 6.4 | 0.00 | 0.00 | 0.00 | 47 | 1018.0 |
| 20260503224818 | 22 | 174 | 1.6 | 4.8 | 0.00 | 0.00 | 0.00 | 47 | 1017.9 |
| 20260503224316 | 22 | 190 | 4.8 | 9.7 | 0.00 | 0.00 | 0.00 | 49 | 1017.8 |
| 20260503223813 | 22 | 206 | 1.6 | 1.6 | 0.00 | 0.00 | 0.00 | 51 | 1017.8 |
| 20260503223311 | 22 | 174 | 1.6 | 4.8 | 0.00 | 0.00 | 0.00 | 46 | 1017.7 |
| 20260503222806 | 22 | 163 | 0.0 | 1.6 | 0.00 | 0.00 | 0.00 | 47 | 1017.8 |
| 20260503222305 | 22 | 223 | 3.2 | 3.2 | 0.00 | 0.00 | 0.00 | 44 | 1018.0 |
| 20260503221803 | 22 | 182 | 1.6 | 1.6 | 0.00 | 0.00 | 0.00 | 46 | 1018.1 |
| 20260503221300 | 22 | 157 | 3.2 | 6.4 | 0.00 | 0.00 | 0.00 | 46 | 1017.9 |
| 20260503220756 | 22 | 168 | 1.6 | 4.8 | 0.00 | 0.00 | 0.00 | 46 | 1018.0 |
| 20260503220254 | 22 | 216 | 3.2 | 6.4 | 0.00 | 0.00 | 0.00 | 46 | 1018.1 |
| 20260503215750 | 23 | 171 | 1.6 | 12.9 | 0.00 | 0.00 | 0.00 | 45 | 1018.0 |
| 20260503215247 | 23 | 220 | 3.2 | 3.2 | 0.00 | 0.00 | 0.00 | 46 | 1018.2 |
| 20260503214745 | 23 | 227 | 3.2 | 4.8 | 0.00 | 0.00 | 0.00 | 42 | 1018.2 |
| 20260503214242 | 24 | 226 | 1.6 | 6.4 | 0.00 | 0.00 | 0.00 | 45 | 1018.0 |
| 20260503213740 | 25 | 244 | 3.2 | 4.8 | 0.00 | 0.00 | 0.00 | 43 | 1018.1 |
| 20260503213237 | 25 | 245 | 0.0 | 3.2 | 0.00 | 0.00 | 0.00 | 42 | 1018.1 |
| 20260503212734 | 25 | 49 | 1.6 | 1.6 | 0.00 | 0.00 | 0.00 | 38 | 1018.1 |
| 20260503212232 | 25 | 331 | 1.6 | 3.2 | 0.00 | 0.00 | 0.00 | 38 | 1018.2 |
| 20260503211729 | 26 | 97 | 4.8 | 6.4 | 0.00 | 0.00 | 0.00 | 39 | 1018.2 |
| 20260503211225 | 26 | 262 | 0.0 | 3.2 | 0.00 | 0.00 | 0.00 | 38 | 1018.0 |
| 20260503210720 | 26 | 288 | 4.8 | 6.4 | 0.00 | 0.00 | 0.00 | 28 | 1018.3 |
| 20260503210218 | 26 | 191 | 1.6 | 3.2 | 0.00 | 0.00 | 0.00 | 28 | 1018.3 |
| 20260503205713 | 26 | 281 | 3.2 | 6.4 | 0.00 | 0.00 | 0.00 | 29 | 1018.3 |
| 20260503205210 | 26 | 269 | 3.2 | 3.2 | 0.00 | 0.00 | 0.00 | 29 | 1018.3 |
| 20260503204706 | 26 | 86 | 1.6 | 4.8 | 0.00 | 0.00 | 0.00 | 29 | 1018.4 |
| 20260503204204 | 26 | 156 | 1.6 | 11.3 | 0.00 | 0.00 | 0.00 | 31 | 1018.3 |
| 20260503203701 | 26 | 292 | 1.6 | 3.2 | 0.00 | 0.00 | 0.00 | 31 | 1018.4 |
| 20260503203159 | 26 | 36 | 1.6 | 3.2 | 0.00 | 0.00 | 0.00 | 29 | 1018.5 |
| 20260503202655 | 26 | 268 | 3.2 | 12.9 | 0.00 | 0.00 | 0.00 | 29 | 1018.4 |
| 20260503202154 | 27 | 275 | 1.6 | 3.2 | 0.00 | 0.00 | 0.00 | 31 | 1018.6 |
| 20260503201651 | 26 | 319 | 1.6 | 4.8 | 0.00 | 0.00 | 0.00 | 33 | 1018.9 |
| 20260503201149 | 26 | 259 | 6.4 | 11.3 | 0.00 | 0.00 | 0.00 | 31 | 1019.1 |
| 20260503200644 | 25 | 264 | 1.6 | 4.8 | 0.00 | 0.00 | 0.00 | 30 | 1018.8 |
| 20260503200141 | 26 | 264 | 6.4 | 9.7 | 0.00 | 0.00 | 0.00 | 30 | 1019.2 |
| 20260503195638 | 26 | 285 | 6.4 | 9.7 | 0.00 | 0.00 | 0.00 | 29 | 1019.1 |
| 20260503195135 | 26 | 148 | 1.6 | 3.2 | 0.00 | 0.00 | 0.00 | 32 | 1019.3 |
| 20260503194632 | 25 | 281 | 4.8 | 4.8 | 0.00 | 0.00 | 0.00 | 30 | 1019.4 |
| 20260503194127 | 25 | 283 | 3.2 | 6.4 | 0.00 | 0.00 | 0.00 | 31 | 1019.4 |
| 20260503193625 | 25 | 289 | 6.4 | 9.7 | 0.00 | 0.00 | 0.00 | 29 | 1019.5 |
| 20260503193120 | 25 | 220 | 0.0 | 4.8 | 0.00 | 0.00 | 0.00 | 31 | 1019.4 |
| 20260503192616 | 25 | 34 | 1.6 | 12.9 | 0.00 | 0.00 | 0.00 | 32 | 1019.6 |
| 20260503192112 | 25 | 279 | 1.6 | 4.8 | 0.00 | 0.00 | 0.00 | 34 | 1019.5 |
| 20260503191609 | 26 | 306 | 6.4 | 9.7 | 0.00 | 0.00 | 0.00 | 32 | 1019.9 |
| 20260503191105 | 25 | 282 | 0.0 | 4.8 | 0.00 | 0.00 | 0.00 | 30 | 1019.9 |